Terug naar catalogus

SHIJIAN 6 05A

SJ-6 05A

ActiefWetenschapSSO
NORAD 49961·PAYLOAD·🇨🇳 China

Gelanceerd Dec 10, 2021 vanaf Jiuquan Satellite Launch Center

Loading…

Volgende Passages (komende 24 uur)

TLE

VersSource: Space-Track

Epoch: Sep 14, 2026, 04:54 UTC

1 49961U 21122A   26257.20419368  .00001099  00000-0  93435-4 0  9999
2 49961  97.4230 221.5179 0003266  60.1194 300.0355 14.99765697262099

Volg SHIJIAN 6 05A in realtime met AllMySat

Download on the App Store